RYR3AG EGCC-LGKR

Flight info

Callsign RYR3AG
Flight time N/A
Altitude 37000
Route DESIG L603 DOLAS DCT NAVPI DCT NOLRU DCT DOJOH DCT DODEN DCT NEGIX DCT DINKU M867 XERUM DCT BAVAX DCT RADIZ DCT DEGUM DCT DABAR DCT PALEZ DCT DIGOT DCT NUPSO DCT OKLAX DCT SPL DCT RILIM DCT AIOSA DCT ENOXA DCT KAPPO DCT TIGRA
Aircraft B738/M-SDE3FGILRWY/SB1

Departure

Time N/A
Airport Manchester Airport (EGCC)

Arrival

Time 2026-04-30 18:49
Airport Corfu Ioannis Kapodistrias International Airport (LGKR)
Time Latitude Longitude Altitude Speed Heading
2026-04-30 15:08 53.35908 -2.27104 281 ft 0 kts 53°
2026-04-30 17:39 45.82848 14.36497 37317 ft 475 kts 143°
2026-04-30 17:42 45.56158 14.63818 37331 ft 471 kts 143°
2026-04-30 17:43 45.42791 14.77378 37318 ft 472 kts 143°
2026-04-30 17:44 45.26722 14.93573 37321 ft 475 kts 144°
2026-04-30 17:47 45.02497 15.17775 37329 ft 477 kts 144°
2026-04-30 17:48 44.82780 15.34827 37326 ft 479 kts 153°
2026-04-30 17:50 44.59076 15.52146 37295 ft 480 kts 153°
2026-04-30 17:52 44.41387 15.65062 37282 ft 478 kts 153°
2026-04-30 17:54 44.14836 15.84171 37259 ft 476 kts 154°
2026-04-30 17:56 43.91465 16.00962 37224 ft 477 kts 154°
2026-04-30 17:58 43.73722 16.13573 37210 ft 479 kts 155°
2026-04-30 18:00 43.50042 16.30258 37206 ft 478 kts 155°
2026-04-30 18:01 43.34941 16.39645 37209 ft 476 kts 159°
2026-04-30 18:02 43.16786 16.50746 37190 ft 477 kts 159°
2026-04-30 18:04 42.98615 16.61828 37166 ft 478 kts 160°
2026-04-30 18:06 42.74277 16.76557 37175 ft 481 kts 160°
2026-04-30 18:08 42.52833 16.89399 37181 ft 483 kts 160°
2026-04-30 18:10 42.29474 17.03260 37161 ft 481 kts 161°
2026-04-30 18:11 42.08068 17.15864 37154 ft 478 kts 161°
2026-04-30 18:13 41.92930 17.24723 37158 ft 476 kts 161°
2026-04-30 18:14 41.77770 17.33583 37161 ft 475 kts 162°
2026-04-30 18:15 41.59567 17.44168 37164 ft 478 kts 162°
2026-04-30 18:16 41.47335 17.51244 37159 ft 480 kts 162°
2026-04-30 18:17 41.41194 17.54786 37159 ft 481 kts 162°
2026-04-30 18:18 41.31963 17.60097 37155 ft 482 kts 162°
2026-04-30 18:18 41.25808 17.63630 37152 ft 482 kts 162°
2026-04-30 18:19 41.19684 17.67137 36901 ft 484 kts 163°
2026-04-30 18:19 41.16602 17.68898 36522 ft 479 kts 163°
2026-04-30 18:19 41.13558 17.70637 36145 ft 475 kts 163°
2026-04-30 18:19 41.10540 17.72360 35749 ft 471 kts 163°
2026-04-30 18:20 41.07537 17.74070 35357 ft 468 kts 163°
2026-04-30 18:20 41.04548 17.75771 34965 ft 466 kts 164°
2026-04-30 18:20 41.01581 17.77456 34557 ft 464 kts 164°
2026-04-30 18:20 40.98642 17.79124 34146 ft 461 kts 164°
2026-04-30 18:21 40.95701 17.80793 33717 ft 458 kts 164°
2026-04-30 18:21 40.92780 17.82448 33307 ft 455 kts 164°
2026-04-30 18:21 40.89881 17.84090 32916 ft 452 kts 165°
2026-04-30 18:21 40.86999 17.85721 32532 ft 449 kts 165°
2026-04-30 18:22 40.84141 17.87336 32151 ft 446 kts 165°
2026-04-30 18:22 40.78511 17.90513 31372 ft 440 kts 165°
2026-04-30 18:22 40.75707 17.92093 31020 ft 437 kts 165°
2026-04-30 18:23 40.72913 17.93666 30673 ft 435 kts 165°
2026-04-30 18:23 40.70141 17.95225 30321 ft 432 kts 165°
2026-04-30 18:23 40.67382 17.96776 29927 ft 430 kts 165°
2026-04-30 18:23 40.64646 17.98328 29515 ft 428 kts 162°
2026-04-30 18:24 40.59872 18.02761 28773 ft 438 kts 140°
2026-04-30 18:24 40.57901 18.05832 28377 ft 440 kts 130°
2026-04-30 18:24 40.56124 18.09082 28013 ft 437 kts 128°
2026-04-30 18:25 40.54378 18.12343 27638 ft 434 kts 128°
2026-04-30 18:25 40.50926 18.18773 26903 ft 427 kts 128°
2026-04-30 18:25 40.49207 18.21936 26535 ft 424 kts 129°
2026-04-30 18:26 40.45804 18.28139 25825 ft 419 kts 129°
2026-04-30 18:26 40.44100 18.31227 25475 ft 416 kts 129°
2026-04-30 18:26 40.42404 18.34296 25119 ft 414 kts 129°
2026-04-30 18:27 40.39039 18.40374 24415 ft 410 kts 129°
2026-04-30 18:27 40.37364 18.43394 24045 ft 409 kts 129°
2026-04-30 18:28 40.34034 18.49393 23282 ft 405 kts 129°
2026-04-30 18:28 40.32382 18.52366 22899 ft 402 kts 129°
2026-04-30 18:28 40.29110 18.58246 22165 ft 396 kts 129°
2026-04-30 18:29 40.27492 18.61151 21816 ft 393 kts 129°
2026-04-30 18:29 40.22704 18.69726 20771 ft 385 kts 129°
2026-04-30 18:30 40.19560 18.75345 20105 ft 380 kts 129°
2026-04-30 18:30 40.16455 18.80884 19442 ft 376 kts 129°
2026-04-30 18:31 40.14911 18.83634 19112 ft 374 kts 129°
2026-04-30 18:31 40.11860 18.89064 18433 ft 372 kts 129°
2026-04-30 18:32 40.08813 18.94478 17695 ft 368 kts 129°
2026-04-30 18:32 40.07304 18.97155 17348 ft 365 kts 129°
2026-04-30 18:32 40.04124 19.02008 16697 ft 356 kts 142°
2026-04-30 18:33 40.02262 19.04102 16379 ft 352 kts 143°
2026-04-30 18:33 39.98541 19.08163 15713 ft 348 kts 143°
2026-04-30 18:33 39.96687 19.10196 15361 ft 347 kts 143°
2026-04-30 18:34 39.94853 19.12222 15026 ft 345 kts 143°
2026-04-30 18:34 39.91228 19.16254 14408 ft 340 kts 142°
2026-04-30 18:34 39.89443 19.18246 14097 ft 338 kts 142°
2026-04-30 18:35 39.87663 19.20233 13773 ft 336 kts 142°
2026-04-30 18:35 39.85893 19.22210 13426 ft 334 kts 142°
2026-04-30 18:35 39.84136 19.24171 13088 ft 332 kts 142°
2026-04-30 18:36 39.80681 19.28026 12443 ft 327 kts 141°
2026-04-30 18:36 39.78959 19.29945 12132 ft 325 kts 141°
2026-04-30 18:36 39.75550 19.33741 11510 ft 321 kts 141°
2026-04-30 18:37 39.73859 19.35621 11203 ft 319 kts 141°
2026-04-30 18:37 39.72181 19.37487 10895 ft 317 kts 141°
2026-04-30 18:37 39.70506 19.39347 10587 ft 316 kts 141°
2026-04-30 18:37 39.68842 19.41194 10273 ft 314 kts 140°
2026-04-30 18:38 39.67194 19.43023 10097 ft 308 kts 140°
2026-04-30 18:38 39.65575 19.44817 9848 ft 305 kts 140°
2026-04-30 18:38 39.63963 19.46604 9548 ft 304 kts 140°
2026-04-30 18:38 39.62364 19.48374 9247 ft 302 kts 140°
2026-04-30 18:39 39.60768 19.50140 8954 ft 300 kts 140°
2026-04-30 18:39 39.59184 19.51892 8662 ft 299 kts 140°
2026-04-30 18:39 39.57606 19.53636 8372 ft 298 kts 139°
2026-04-30 18:39 39.56052 19.55352 8078 ft 296 kts 139°
2026-04-30 18:40 39.54469 19.57100 7790 ft 295 kts 139°
2026-04-30 18:40 39.52929 19.58800 7506 ft 294 kts 139°
2026-04-30 18:40 39.51372 19.60516 7220 ft 293 kts 139°
2026-04-30 18:40 39.49822 19.62225 6937 ft 292 kts 139°
2026-04-30 18:41 39.48280 19.63923 6648 ft 291 kts 139°
2026-04-30 18:41 39.46738 19.65621 6377 ft 289 kts 139°
2026-04-30 18:41 39.45212 19.67300 6092 ft 287 kts 139°
2026-04-30 18:41 39.43688 19.68975 5813 ft 286 kts 139°
2026-04-30 18:42 39.42186 19.70625 5525 ft 284 kts 139°
2026-04-30 18:42 39.39860 19.74521 5015 ft 272 kts 98°
2026-04-30 18:42 39.39693 19.76874 4851 ft 262 kts 86°
2026-04-30 18:45 39.42607 19.96472 3277 ft 188 kts 16°
2026-04-30 18:45 39.43890 19.96659 3108 ft 190 kts 358°
2026-04-30 18:45 39.45201 19.96570 2874 ft 185 kts 349°
2026-04-30 18:46 39.46412 19.96242 2628 ft 171 kts 344°
2026-04-30 18:46 39.47494 19.95865 2421 ft 153 kts 343°
2026-04-30 18:46 39.48476 19.95505 2256 ft 143 kts 342°
2026-04-30 18:46 39.49439 19.95146 2052 ft 144 kts 342°
2026-04-30 18:47 39.50391 19.94790 1846 ft 140 kts 342°
2026-04-30 18:47 39.51306 19.94446 1676 ft 139 kts 342°
2026-04-30 18:47 39.52248 19.94093 1445 ft 143 kts 342°
2026-04-30 18:47 39.53189 19.93740 1276 ft 141 kts 342°
2026-04-30 18:48 39.54113 19.93322 1147 ft 142 kts 335°
2026-04-30 18:48 39.55050 19.92845 979 ft 145 kts 339°
2026-04-30 18:48 39.56010 19.92445 806 ft 145 kts 341°
2026-04-30 18:48 39.56990 19.92045 535 ft 149 kts 342°
2026-04-30 18:49 39.57998 19.91736 317 ft 150 kts 350°
2026-04-30 18:49 39.59032 19.91517 89 ft 151 kts 349°
2026-04-30 18:49 39.60035 19.91266 7 ft 131 kts 349°
2026-04-30 18:49 39.60693 19.91086 4 ft 43 kts 350°
2026-04-30 18:50 39.60757 19.91072 5 ft 0 kts 348°
2026-04-30 18:50 39.60792 19.91062 5 ft 16 kts 348°
2026-04-30 18:50 39.60923 19.91026 5 ft 20 kts 349°
2026-04-30 18:50 39.61034 19.91039 6 ft 15 kts 46°
2026-04-30 18:51 39.61025 19.91131 7 ft 12 kts 160°
2026-04-30 18:51 39.60930 19.91156 7 ft 18 kts 168°
2026-04-30 18:51 39.60797 19.91194 6 ft 15 kts 167°
2026-04-30 18:51 39.60778 19.91260 7 ft 9 kts 81°
2026-04-30 18:52 39.60784 19.91302 9 ft 1 kts 78°
2026-04-30 18:52 39.60786 19.91316 7 ft 3 kts 77°
2026-04-30 18:52 39.60790 19.91335 7 ft 0 kts 75°